Погода в Керки

Погода в Керки : погода сейчас, прогноз погоды и архив. Всё, что Вы хотите узнать о погоде в Керки!

Хотите узнать прогноз погоды в Керки? Тогда Вам сюда: Погода в Керки

Поиск расширенной информации на нашем сайте:

Другие новости

Новости СМИ2

Главная страница сайта

Новости сайта

03.07.2017

Напоминаем, что на нашем специализированном сайте Метеоцентр.Азия вы можете получить высокодетализированные автоматические прогнозы погоды по пунктам России, СНГ и мира в авиационном формате (включающие направление и скорость ветра, видимость, явления погоды, количество и форму облачности, нижнюю и верхнюю границу облачности).

Рекомендуем: Свежая информация старые книги купить на сайте.

Погода в Керки - сегодня

Время (UTC), дата Ветер
(°,м/с) 
Видим.   Явления Облачность Т
(°С)
Тd
(°С)
f(%) Тe
(°С)
Pmin
(гПа)
dP
(гПа)
Po
(мм)
O2
(г/м3)
Тmin Tmax R s Состояние
почвы
18 14.08.18 330 (СЗ) 10 км    ясно 
+27.8 +13.7 42 +35  1004.4  0.7  733  265    +38.3       
21 14.08.18 тихо ()   10 км    ясно 
+25.6 +13.3 47 +32  1005  0.3  733  268           
00 15.08.18 320 (СЗ) 10 км    ясно 
+22.4 +12.6 54 +28  1005.2  733  271           
03 15.08.18 //0 (С) //  н/о    н/о 
                 
06 15.08.18 320 (СЗ) 20000 м    ясно 
+31.1 +18.8 48 +48  1007.3  735  262  +21.2         
09 15.08.18 350 (С) 20000 м    ясно 
+38.8 +13.2 22 +45  1005.3  -1.4  734  257           
12 15.08.18 350 (С) 20000 м    ясно 
+39.4 +12.5 20 +45  1002.8  -2.4  733  256           
15 15.08.18 350 (С) 20000 м    ясно 
+35 +12.2 25 +40  1004.3  733  259    +39.6       
18 15.08.18 350 (С) 10 км    ясно 
+30.2 +12.5 34 +35  1004.6  733  264    +39.6       
21 15.08.18 350 (С) 10 км    ясно 
+26.8 +13.2 43 +33  1004.5  -0.4  733  266           
00 16.08.18 350 (С) 10 км    ясно 
+24.3 +13.3 50 +31  1005  0.2  733  269           
03 16.08.18 350 (С) 20000 м    ясно 
+25.2 +15.5 55 +35  1006.2  1.3  734  268           
06 16.08.18 360 (С) 20000 м    ясно 
+33.2 +19.2 44 +51  1006.9  0.6  735  259  +23.1         
09 16.08.18 360 (С) 20000 м    ясно 
+39.2 +15.6 25 +50  1005.1  -0.5  734  256           
12 16.08.18 360 (С) 20000 м    ясно 
+40.2   1004.8  -0.3  734             
15 16.08.18 010 (С) 20000 м    ясно 
+37.2 +13.3 24 +44  1004  -0.9  733  258    +40.6       
18 16.08.18 350 (С) 10 км    ясно 
+31.2 +12.7 32 +37  1004.5  733  263    +40.6       
21 16.08.18 350 (С) 10 км    ясно 
+28.7 +15 43 +38  1004.6  -0.1  733  264           
00 17.08.18 350 (С) 10 км    ясно 
+26.2 +14.8 49 +35  1004.6  -0.3  733  266           
03 17.08.18 320 (СЗ) 20000 м    ясно 
+25.6 +14.2 49 +33  1006.1  1.4  734  268           
06 17.08.18 330 (СЗ) 20000 м    ясно 
+33 +20.6 48 +54  1005.8  0.5  734  259  +24.8         
09 17.08.18 350 (С) 20000 м    ясно 
+37.2 +18.4 33 +53  1004.1  -1.3  734  256           
12 17.08.18 350 (С) 20000 м    ясно 
+37.3 +16 28 +48  1002.8  -1.4  732  256           
15 17.08.18 330 (СЗ) 20000 м    ясно 
+31.4 +15.2 38 +41  1003.3  732  262    +38.2       
18 17.08.18 320 (СЗ) 10 км    ясно 
+26.6 +12.7 42 +32  1004.2  0.4  733  267    +38.2       
Время (UTC), дата Ветер
(°,м/с) 
Видим.   Явления Облачность Т
(°С)
Тd
(°С)
f(%) Тe
(°С)
Pmin
(гПа)
dP
(гПа)
Po
(мм)
O2
(г/м3)
Тmin Tmax R s Состояние
почвы

Для получения пояснительной информации подведите курсор к названию столбца.

ПОГОДА в Керки - архив

Всё, что Вы хотите узнать о погоде в Керки - удобно и подробно!

Выберите нужную дату (начиная с 1 января 2015* года) и нажмите кнопку "Найти".
Будут отображены архивные сводки погоды по пункту Керки, начиная с указанной даты.


Отображать данные в формате CSV (для использования в таблицах Excel)


Внимание! Наш архив погоды предназначен исключительно для личного некоммерческого использования в познавательных целях. Если Вам необходимы официальные справки о состоянии погоды (для производственных, юридических, коммерческих и т.п. целей), обращайтесь в органы Росгидромета.

*Примечание: данная дата относится к архиву по метеостанциям СССР (Россия, СНГ, Балтия).
Архив по метеостанциям Зарубежной Европы и Азии (кроме Китая) хранится 10 дней, по другим регионам земного шара (Китай, Африка, Америка, Австралия, Океания) - 1 день.

Керки - район местоположения метеостанции


Название, широта, долгота, высота метеостанции:
Керки 37.8°ш. 65.2°д. 240 м над ур. моря [Туркменистан]

Дополнительная информация

В oтличие oт бoльшинства пoгoдных сайтoв мы публикуем пoдрoбную метеoинфoрмацию в детальнoм прoфессиoнальнoм фoрмате.

Характеристики температуры и влажнoсти вoздуха измеряются на высoте 2 м в тени вдали oт зданий и деревьев.
Скoрoсть ветра измеряется на высoте 10 м (на урoвне рoста челoвека скoрoсть ветра ниже в 1.5-2 раза). Если метеoстанция нахoдится в гoрoде или в лесу, тo скoрoсть ветра занижена на 2-4 м/с пo сравнению с oткрытым местoм. Скoрoсть ветра над акватoриями крупных рек и oзёр, а также на вершинах хoлмoв на 2-5 м/с выше, чем в oбычных услoвиях.
Атмoсфернoе давление в разных тoчках местнoсти мoжет значительнo oтличаться oт давления на метеoстанции, в зависимoсти oт услoвий рельефа (при пoдъёме на 10 м давление пoнижается примернo на 1 мм рт.ст.).